Location: Seven Kings
(51.5667°N, 0.1000°E)
Time: 12:06:08
(UTC+00:00)

Cosmos 1486 Rocket - Pass Details

Date: 29 October 2020
Orbit: 758 x 784 km, 74.1° (Epoch: 24 November)

Event Time Altitude Azimuth Distance (km) Brightness Sun altitude
Rises 17:03:02 0° 337° (NNW) 3,287 7.4 -4.6°
Reaches altitude 10° 17:05:34 10° 344° (NNW) 2,354 6.5 -5.0°
Maximum altitude 17:10:41 44° 57° (ENE) 1,081 4.4 -5.8°
Drops below altitude 10° 17:15:44 10° 129° (SE) 2,334 6.2 -6.5°
Sets 17:18:13 0° 136° (SE) 3,255 6.9 -6.9°
